Wind_Speed
15 15 14 13 13 13 14 15 15 14 14 14 15 14 13 14 14 15 15 14 14 17 17 9 1 4 4 14 24 30 33 34 33 36 37 33 27 24 26 25 24 23 20 17 12 10 12 13 13 9 4 8 13 13 11 12 12 7 3 4 4 1 2 2 2 4 2 4 9 18 19 9 9 20 23 13 11 22 20 20 23 15 16 20 23 23 16 11
15 14 13 12 13 12 13 14 14 14 14 15 15 15 14 13 13 13 13 14 17 21 24 20 7 4 7 3 11 20 30 32 33 41 38 27 26 26 25 25 25 25 21 19 17 16 17 16 15 10 10 17 17 14 12 14 16 9 3 4 3 1 2 0 3 7 4 5 11 15 15 10 9 16 19 12 12 22 20 23 29 23 19 21 25 23 17 13
14 13 12 12 12 12 13 13 14 14 15 15 15 16 16 15 15 13 11 12 16 21 25 26 19 8 3 7 2 9 21 29 32 35 31 26 27 26 25 26 25 24 22 21 20 17 15 15 13 11 18 23 20 19 17 15 13 8 6 5 2 3 3 4 9 12 9 8 11 12 12 10 11 14 18 13 11 14 15 19 27 29 28 27 27 23 19 16
14 13 13 12 12 13 13 14 14 14 15 16 16 17 18 18 18 16 13 10 12 20 26 28 26 21 10 4 6 2 10 25 31 28 25 26 26 25 26 26 24 23 19 16 17 16 13 12 11 14 21 19 20 24 19 15 9 7 7 4 3 6 3 10 16 14 12 8 7 9 9 10 12 15 22 21 10 9 17 24 24 27 29 27 23 20 19 16
14 14 14 13 13 14 14 14 14 14 15 16 17 18 19 21 22 23 21 15 10 12 22 29 31 30 23 12 3 4 2 10 19 22 22 25 25 25 26 25 24 20 16 13 14 13 11 10 11 17 20 14 16 16 14 15 11 7 7 4 5 6 3 13 19 13 10 7 6 8 8 10 10 15 26 26 11 10 23 28 24 21 20 18 16 16 16 16
14 15 15 15 14 14 14 14 14 14 14 15 17 18 20 21 23 26 26 24 17 9 11 18 25 31 31 27 16 11 12 6 12 21 21 23 23 24 24 24 22 18 15 13 13 15 15 16 16 16 12 10 12 9 11 17 14 7 5 6 7 10 7 14 19 14 13 14 12 10 11 17 12 11 25 29 19 22 25 21 15 14 12 9 11 14 16 17
15 16 16 15 15 15 14 14 13 13 13 14 16 17 19 20 22 23 25 28 26 19 9 5 8 14 22 28 28 31 31 17 14 18 18 21 23 23 23 22 21 20 18 19 19 18 20 24 23 17 9 7 10 7 9 19 21 12 3 7 9 13 15 17 18 15 17 20 17 19 21 25 14 7 24 33 30 30 25 18 13 12 12 11 13 16 18 17
15 16 16 16 15 14 14 13 12 11 12 13 14 16 18 19 21 21 23 25 27 26 19 10 3 1 5 12 24 37 34 21 16 16 15 19 22 22 21 21 22 23 24 25 22 19 22 25 21 16 10 5 6 7 6 12 17 11 2 5 10 15 20 22 22 17 18 19 23 30 29 28 16 6 24 35 32 31 25 20 17 14 15 16 17 18 18 17
14 15 15 15 15 14 13 12 12 10 10 12 13 14 15 16 19 21 24 25 26 27 25 21 11 2 1 3 19 29 23 17 15 14 14 16 20 21 21 22 23 23 25 25 23 20 21 21 18 15 13 9 9 8 9 7 6 6 2 5 9 15 22 25 25 20 14 15 25 29 23 28 23 7 17 34 33 27 24 23 21 19 21 23 23 22 21 20
14 14 15 15 14 13 13 13 12 10 10 11 12 12 13 13 14 17 20 23 25 26 27 27 21 16 12 16 27 20 11 14 13 11 13 15 18 19 20 23 23 24 25 24 25 25 20 15 13 16 14 12 13 11 12 8 2 4 2 7 12 13 24 30 27 26 13 11 20 16 15 27 29 15 11 30 32 25 24 25 25 26 28 29 26 24 24 23
13 14 14 14 13 13 13 13 13 11 10 10 10 10 9 9 10 12 13 16 21 24 25 25 26 28 28 35 37 18 9 13 11 11 12 13 17 19 20 22 23 26 26 25 25 24 22 14 8 10 9 7 9 11 12 9 4 6 1 3 13 13 25 33 27 30 14 9 18 6 12 28 29 20 14 27 29 24 25 26 27 30 32 31 29 27 27 26
12 13 13 13 13 12 13 14 14 13 10 8 6 5 5 6 6 8 10 11 13 18 24 25 24 25 34 43 36 18 12 12 9 11 11 12 18 19 18 19 23 26 27 29 26 21 20 18 12 11 8 5 3 5 8 7 5 12 8 1 11 11 18 27 23 27 13 11 20 1 7 21 18 17 19 26 26 23 27 27 28 29 31 33 32 31 30 28
12 12 12 13 13 12 13 13 14 14 13 11 9 8 7 5 6 8 10 11 11 11 14 22 25 25 32 34 26 18 14 12 9 7 9 12 15 17 17 15 18 22 25 29 29 24 19 16 17 19 16 9 4 4 6 8 5 9 11 3 6 6 9 19 23 26 14 16 21 3 3 10 9 16 22 25 24 24 28 28 28 26 29 32 33 34 33 31
12 12 12 13 13 12 12 12 13 14 13 12 12 13 12 10 11 12 14 15 15 14 11 13 17 24 31 25 19 20 16 13 12 11 13 11 10 14 16 14 14 15 19 22 25 28 25 18 17 20 19 13 6 5 4 10 8 3 5 4 4 4 5 12 21 24 11 17 23 8 5 6 7 16 21 23 24 24 25 26 27 26 26 28 30 33 34 33
13 12 12 12 13 12 11 11 10 10 9 9 8 9 12 11 10 10 12 12 14 16 16 15 13 16 22 19 16 19 15 14 16 18 19 15 11 10 11 13 14 12 15 18 19 24 28 28 26 20 17 14 9 5 3 5 6 4 3 3 4 3 4 7 16 24 9 12 23 11 4 3 6 14 20 21 22 22 23 24 26 26 25 26 26 29 32 32
13 12 11 12 12 12 12 12 12 12 14 14 14 11 9 10 12 14 15 15 16 16 16 18 18 18 16 11 14 19 19 18 16 15 16 17 16 11 8 8 10 12 11 14 16 18 24 29 30 26 21 15 7 3 4 4 4 4 4 2 3 3 4 4 9 22 15 9 19 13 5 3 6 13 19 20 21 20 22 23 24 25 25 25 25 26 29 30
13 12 11 12 12 13 15 17 20 22 24 25 27 24 17 12 9 8 11 13 14 17 20 18 14 17 18 13 15 20 23 21 15 9 11 15 18 16 10 4 5 10 10 11 12 14 20 20 16 16 18 13 6 2 5 5 4 4 4 2 2 2 3 4 4 14 18 10 11 11 8 7 8 12 17 20 20 19 20 21 21 22 22 23 24 24 26 28
12 11 11 12 11 13 17 20 21 22 22 22 22 25 26 24 17 9 7 5 6 9 18 22 13 8 13 19 17 16 18 21 17 10 7 9 16 19 16 9 4 4 9 12 13 15 15 12 7 4 7 8 7 6 5 3 0 1 2 1 2 2 2 4 3 5 10 10 8 8 9 8 9 12 16 19 19 18 18 18 18 20 20 21 22 22 24 26
11 11 10 11 10 12 15 15 15 14 14 13 11 14 19 25 28 28 26 20 17 12 8 18 18 5 3 18 19 11 13 21 21 14 7 5 9 15 17 16 13 9 9 9 13 18 11 6 6 4 5 7 6 6 3 2 4 3 1 1 1 2 2 2 3 3 2 7 8 7 7 7 8 11 14 17 18 18 17 16 18 19 19 20 21 21 22 25
10 10 9 9 9 9 10 7 5 7 12 12 5 4 5 9 15 23 35 35 29 21 13 15 17 9 3 15 21 12 10 19 23 19 14 7 4 10 18 20 19 20 12 3 5 14 11 8 7 4 4 6 6 4 2 2 2 3 2 2 1 1 2 2 3 4 1 3 6 5 6 6 7 9 11 15 17 19 19 17 18 18 19 19 20 21 22 23
9 8 7 7 6 5 4 3 4 6 9 12 7 6 6 7 7 10 23 28 22 21 21 20 19 17 11 13 22 18 11 16 23 23 19 16 8 7 18 20 15 14 12 5 2 7 11 11 5 4 5 6 5 5 2 2 3 3 3 2 2 1 2 2 2 4 2 3 3 2 5 6 6 6 9 13 14 16 18 16 15 16 17 17 18 21 22 22
8 7 7 6 4 2 0 3 5 4 3 8 11 16 18 18 16 14 15 15 14 17 18 20 21 22 17 12 16 20 20 19 21 24 21 19 15 9 14 16 9 7 12 8 3 5 9 9 5 6 6 4 3 4 2 5 5 4 3 2 1 2 1 1 2 3 3 3 1 2 5 5 4 5 8 11 11 12 15 15 14 13 14 16 17 18 19 22
7 6 6 6 5 4 4 4 3 1 2 2 8 15 19 19 16 14 12 10 10 14 15 18 22 24 22 16 13 17 24 20 17 23 23 19 17 12 12 11 6 5 9 8 5 6 6 5 7 6 6 3 3 7 6 5 5 4 4 2 1 2 1 1 1 2 3 2 1 0 3 2 3 3 6 8 9 10 13 14 14 13 12 13 15 15 17 21
7 7 6 6 6 6 6 5 4 2 3 3 4 8 10 12 12 9 8 6 6 10 14 16 20 24 23 21 16 11 17 19 17 21 23 20 15 10 8 7 5 5 5 6 8 9 4 3 8 6 6 4 3 7 8 5 3 2 2 2 2 3 2 3 1 2 3 2 1 2 1 1 2 3 3 4 6 7 10 13 14 14 12 12 14 15 16 19
7 7 6 6 6 6 7 6 5 4 3 3 1 3 2 5 9 9 7 5 3 8 12 13 16 21 21 23 18 6 7 15 19 21 18 19 15 6 5 6 5 5 5 4 7 7 3 4 7 6 6 6 4 5 5 3 1 3 1 2 4 4 4 3 3 3 2 2 2 1 1 3 2 2 3 3 2 3 6 9 10 13 15 13 13 15 17 18
7 7 7 7 6 6 6 6 5 3 3 2 1 1 1 3 5 8 5 5 4 8 11 11 11 16 19 22 20 5 2 9 14 19 16 15 15 6 4 5 4 3 3 1 4 2 2 7 7 4 4 6 6 4 1 2 3 2 2 3 3 3 1 1 3 2 1 1 2 3 1 3 3 2 2 3 3 0 4 3 4 9 14 13 12 14 16 17
7 7 7 7 7 7 6 5 4 2 3 2 2 3 3 3 3 4 4 5 5 6 8 9 8 13 14 18 21 7 1 9 10 16 17 12 13 9 4 3 3 3 2 2 3 1 2 8 8 6 6 7 6 3 1 2 4 1 3 2 1 3 2 2 3 2 1 2 3 3 2 1 2 2 3 2 3 2 1 1 2 6 10 11 12 12 14 16
7 7 7 7 7 7 7 6 4 2 2 2 2 3 3 2 1 1 5 4 4 5 5 7 6 11 11 11 20 13 3 11 7 12 18 11 10 10 6 2 2 2 3 4 3 2 1 4 6 5 7 6 2 5 4 2 2 3 3 2 2 2 3 3 4 2 1 2 3 5 3 1 3 3 2 0 2 4 3 3 3 3 5 7 9 10 12 14
7 6 6 7 6 7 7 7 5 3 2 2 3 3 3 3 2 2 6 3 3 3 3 7 6 12 13 6 13 16 10 12 9 10 16 13 9 8 6 4 3 2 6 6 4 3 2 2 2 1 3 3 4 7 4 3 2 4 2 2 2 3 4 3 4 1 2 3 1 5 3 2 3 4 1 1 2 4 4 4 3 2 2 3 5 7 9 11
6 6 6 6 6 7 7 7 6 4 2 3 5 6 5 4 3 4 4 1 2 2 3 6 5 11 16 7 8 16 11 11 14 14 15 15 14 12 8 4 6 3 4 7 2 2 3 3 3 2 1 4 6 6 3 2 3 3 1 4 3 3 4 3 2 2 3 3 3 4 1 2 1 4 2 2 3 3 3 3 3 4 3 3 2 3 5 7
6 6 6 7 7 7 7 6 7 4 3 4 7 7 5 2 4 6 2 2 1 3 4 5 4 6 11 5 3 12 8 7 15 14 11 11 14 17 11 4 7 5 3 6 3 3 5 2 1 2 2 6 4 2 3 3 3 2 2 4 2 4 4 3 4 4 4 2 4 3 2 1 1 4 4 5 5 5 5 4 5 6 6 4 3 2 2 4
6 6 6 7 7 8 7 7 7 4 2 4 6 4 3 2 4 2 2 3 2 2 2 2 4 4 5 3 2 7 4 5 11 9 5 5 7 10 9 3 4 4 4 5 4 4 3 2 4 3 1 7 5 1 4 5 5 5 3 5 3 3 4 3 4 3 0 4 3 1 3 0 3 5 5 7 8 8 9 9 8 8 6 5 4 3 2 2
6 7 7 7 7 8 8 7 7 4 1 3 4 2 5 5 2 1 3 3 1 2 2 1 4 3 2 3 4 5 2 2 7 8 4 4 5 4 5 5 4 2 1 3 3 6 3 3 6 3 0 9 8 3 3 4 5 5 2 3 2 1 4 3 3 2 3 5 4 3 3 1 3 4 5 8 11 14 13 10 9 8 6 5 5 4 4 3
5 7 7 6 7 7 7 7 6 4 1 3 4 3 6 4 1 1 2 3 1 3 2 1 4 4 3 4 3 4 2 1 5 7 6 5 5 4 4 7 8 4 1 3 2 3 2 4 6 4 3 9 8 3 1 0 3 3 2 3 1 3 2 2 3 1 4 5 5 4 1 2 2 2 4 7 10 14 13 10 10 9 7 6 7 7 7 6
5 7 6 6 7 6 6 7 6 5 2 4 4 6 4 0 3 1 2 4 1 2 2 2 3 4 4 3 3 2 2 2 4 6 5 4 3 2 3 4 6 5 2 2 1 0 1 5 5 3 2 2 4 3 1 3 2 2 1 3 1 3 3 1 3 4 2 2 4 3 2 4 3 3 4 3 5 9 12 12 12 12 10 9 10 10 9 8
5 7 7 6 7 7 7 7 7 6 2 5 5 5 2 3 3 3 1 1 1 1 1 3 3 4 3 4 4 3 1 1 3 4 3 2 1 0 1 2 3 4 2 2 1 1 2 4 4 4 1 1 3 4 0 2 1 1 2 1 1 2 4 3 1 1 2 0 3 2 3 4 3 4 3 1 2 6 9 12 15 15 14 13 13 12 10 9
4 6 8 8 8 9 9 7 7 5 1 4 6 2 3 2 3 3 2 2 2 2 2 2 2 2 2 3 3 4 2 1 2 3 1 1 1 2 1 1 1 3 1 2 1 0 1 4 4 2 1 1 4 3 1 2 1 1 2 1 1 2 4 3 0 3 4 0 4 2 3 5 2 3 3 1 4 7 7 11 15 17 17 17 17 14 11 10
3 5 7 9 10 10 10 9 7 4 1 4 5 1 2 2 3 4 2 3 3 3 4 2 0 1 2 1 3 4 3 2 2 3 1 1 1 3 2 0 1 3 2 3 2 0 0 3 5 0 2 5 7 1 2 2 3 4 2 3 2 2 2 3 2 2 3 2 5 4 4 4 3 3 3 4 9 10 8 9 11 15 20 22 22 17 14 12
3 4 6 9 10 10 10 10 7 4 3 4 2 2 1 1 3 3 3 3 2 2 3 3 1 1 3 3 2 3 3 3 2 2 0 0 1 4 3 2 1 2 2 4 3 1 1 0 3 2 1 5 5 2 1 3 4 4 3 1 2 3 2 1 2 1 0 1 3 5 5 3 5 5 5 8 10 10 9 7 10 18 24 25 24 20 17 15
3 3 5 9 10 11 10 9 7 5 4 3 3 2 0 1 3 4 4 3 2 1 1 3 2 1 2 3 2 1 2 2 0 0 1 0 0 2 3 4 3 1 2 4 3 1 1 1 3 4 4 2 2 1 2 2 1 2 2 3 3 2 1 0 2 1 2 1 0 2 5 6 5 4 6 8 8 9 10 9 13 22 27 27 26 23 19 18
4 2 5 8 10 10 8 8 9 8 4 2 1 0 1 1 3 4 4 3 1 1 1 3 3 2 3 2 1 1 0 1 1 0 2 2 0 1 3 5 4 2 2 3 2 1 1 2 2 4 5 2 2 2 1 2 2 1 0 0 0 1 2 2 3 3 1 2 2 2 4 8 6 3 5 7 6 8 12 14 16 23 27 27 26 23 20 19
5 2 5 9 9 9 7 6 8 6 3 2 2 1 1 1 3 3 3 3 1 2 2 2 2 2 2 2 1 2 1 0 1 1 2 3 2 2 3 5 4 2 2 1 1 2 3 2 1 4 5 3 2 1 1 1 2 2 1 1 2 2 3 4 2 3 1 1 1 2 2 8 5 3 5 7 7 8 11 13 17 21 23 22 22 21 20 20
5 3 5 8 8 7 5 4 4 4 3 2 3 3 2 2 2 2 2 1 1 1 2 1 1 1 1 1 1 2 1 1 2 2 1 2 2 2 4 5 3 2 2 0 1 3 2 2 0 4 5 3 3 2 1 1 1 1 1 1 3 1 2 3 3 2 1 2 2 2 3 7 5 3 5 7 8 9 10 11 16 19 20 19 19 19 20 21
4 3 5 8 9 6 3 2 1 1 1 1 3 3 2 1 1 1 1 1 0 1 1 1 1 1 1 2 3 2 1 0 1 1 0 1 2 1 5 5 2 2 2 1 1 3 2 0 1 2 6 6 5 5 4 4 1 2 2 1 2 3 5 3 2 2 1 4 5 4 4 7 4 2 3 4 5 8 11 11 13 17 19 19 19 19 20 21
3 2 3 7 9 7 4 3 3 4 2 1 3 2 2 2 1 1 1 1 1 1 1 1 1 2 3 3 3 2 2 1 1 2 2 1 2 2 5 5 2 1 1 1 1 3 2 1 2 2 1 3 4 4 4 3 2 2 2 2 3 4 6 3 1 2 2 4 5 5 6 7 5 4 5 5 4 6 11 12 12 16 19 20 20 21 21 21
2 1 3 5 8 9 9 7 4 5 4 2 2 1 1 2 0 2 2 1 2 2 1 1 2 3 2 2 2 2 2 2 2 1 2 2 3 1 4 6 4 2 2 1 2 2 1 1 2 4 5 5 6 6 2 1 3 5 5 4 5 5 5 4 3 3 4 3 3 8 9 11 15 10 5 7 6 5 11 14 16 18 20 21 22 23 23 23
2 1 2 2 4 7 10 9 6 5 5 4 2 1 2 1 1 1 3 2 2 3 2 1 3 3 2 2 1 0 1 2 3 2 3 4 3 2 3 6 5 5 5 3 2 2 3 2 4 5 8 8 8 8 5 3 6 9 10 8 7 7 7 7 6 6 4 4 5 9 7 9 17 12 7 9 8 6 12 17 19 21 22 23 24 25 26 26
2 1 0 1 0 2 4 5 5 7 7 4 2 2 2 1 0 1 3 2 1 4 3 1 3 5 5 5 3 1 1 2 3 3 3 2 2 3 2 5 5 6 7 5 2 3 3 3 4 3 6 9 9 10 9 7 8 9 11 12 10 8 10 13 14 10 7 6 10 7 3 8 16 15 12 13 10 10 18 23 23 25 26 26 26 26 27 27
3 3 3 4 2 2 3 3 5 8 7 5 2 2 3 4 4 3 3 2 1 3 5 2 5 7 7 6 4 2 3 2 2 4 3 2 2 1 1 2 3 5 7 5 1 2 3 2 2 1 5 9 8 9 8 6 7 8 12 15 13 12 14 16 16 12 11 15 17 13 12 15 19 18 18 23 23 20 25 29 27 27 27 27 27 26 27 27
3 3 4 5 4 4 5 5 6 6 4 3 1 2 4 6 6 4 5 6 2 2 6 6 5 6 9 8 5 4 7 6 2 3 5 3 2 2 2 2 3 3 4 2 0 1 2 2 0 2 4 8 5 5 5 4 7 10 15 17 15 14 15 15 14 12 12 15 18 17 15 16 23 23 20 25 29 22 22 26 26 25 25 24 25 25 25 24
4 3 4 4 3 4 5 4 5 4 2 1 3 4 4 6 8 6 5 8 9 6 8 9 5 4 5 6 7 10 14 12 7 5 6 5 5 4 4 4 5 5 3 3 2 2 3 2 2 5 3 6 3 5 8 8 9 12 19 21 16 12 10 10 10 11 13 14 12 10 8 11 18 17 13 17 20 16 18 23 23 23 23 23 24 25 23 22
5 5 6 5 2 3 5 4 4 3 1 4 6 6 5 5 7 8 3 6 11 10 9 11 9 6 3 5 10 14 16 14 13 11 9 10 10 9 8 7 8 7 4 4 2 1 3 2 1 2 3 6 4 5 8 9 10 10 11 11 8 8 8 7 5 9 15 13 7 6 9 10 10 9 7 10 13 13 17 20 22 23 23 23 25 25 25 25
Wind_Direction
56 55 54 52 52 52 52 55 60 64 65 63 62 66 71 68 62 60 59 56 49 38 31 27 229 189 101 61 56 53 52 53 54 57 53 40 28 24 21 16 17 22 21 24 34 33 36 45 40 39 57 59 52 44 44 44 36 41 71 64 60 36 27 90 49 357 319 300 318 333 345 349 332 344 353 357 3 3 4 7 7 21 28 19 14 7 9 15
52 51 50 51 54 57 58 61 65 67 66 63 61 64 67 65 56 51 51 50 46 41 39 39 45 211 210 125 59 51 47 49 55 52 47 39 33 28 22 19 16 17 19 22 30 33 33 39 40 48 68 61 48 45 55 44 40 50 89 74 64 48 305 92 10 346 338 305 305 325 341 347 340 338 353 356 349 12 13 354 356 3 10 15 13 11 18 17
49 49 49 53 58 64 66 68 71 70 69 65 66 68 67 62 53 48 45 48 51 50 47 45 47 50 196 200 167 52 40 43 47 40 36 36 32 27 23 22 17 13 15 18 23 28 36 45 49 59 70 60 44 50 50 32 37 47 60 76 33 338 307 342 348 336 330 312 303 321 340 351 357 360 9 359 337 16 17 351 348 341 341 352 0 6 11 11
48 49 51 58 64 71 74 74 74 73 71 69 72 72 68 61 52 48 45 51 60 59 57 53 51 48 56 166 199 158 45 42 36 25 28 33 29 27 25 23 22 18 15 21 25 27 39 53 60 65 69 55 39 52 41 19 44 46 51 96 340 341 345 357 348 340 341 328 303 322 352 358 6 28 26 16 9 10 350 338 334 326 331 345 355 5 9 9
51 55 60 67 71 76 77 76 75 74 73 73 76 74 69 62 54 50 46 49 64 70 66 61 59 55 51 58 132 205 82 39 21 19 29 30 28 26 25 25 26 23 20 29 35 37 45 52 64 61 61 46 32 50 29 21 67 68 49 90 12 9 5 353 358 6 2 4 353 352 17 354 1 42 31 29 34 340 333 328 330 339 345 357 6 12 12 14
58 63 69 75 77 79 79 76 74 74 75 77 79 77 71 63 56 51 46 45 46 57 74 71 68 64 61 62 74 92 93 74 5 22 30 28 30 26 26 28 29 32 30 38 46 51 56 56 64 58 58 55 37 49 30 35 76 96 39 47 39 34 23 1 13 28 26 38 31 20 34 12 16 50 27 28 15 346 347 344 351 13 23 33 29 24 23 22
64 69 75 79 80 80 79 75 73 75 78 81 83 79 72 64 58 54 50 47 43 40 44 74 76 70 69 64 66 72 74 64 24 28 31 29 30 27 30 31 34 39 40 48 51 53 57 58 64 62 65 68 40 43 44 49 67 86 52 26 37 34 23 16 26 38 47 53 46 44 43 21 18 59 28 18 4 1 12 26 41 53 55 55 43 39 39 35
70 74 78 80 81 80 77 73 71 77 82 86 87 82 75 67 61 57 56 54 49 46 41 41 45 192 66 48 55 59 54 40 30 33 33 32 30 27 32 37 42 42 44 48 48 53 58 58 61 63 65 62 45 38 38 52 55 61 65 21 34 31 22 26 33 41 55 58 52 50 41 22 18 64 35 13 359 7 20 36 50 58 55 53 51 49 48 44
74 76 77 78 79 76 73 67 65 78 87 89 91 86 78 67 60 56 56 56 55 54 50 49 44 45 133 64 61 55 37 24 26 29 33 33 28 27 33 42 46 46 48 49 50 54 58 61 63 73 78 68 62 38 25 50 45 24 65 54 37 33 23 25 31 31 47 50 47 52 42 26 24 46 30 8 360 7 19 35 44 52 53 53 55 54 53 49
76 76 76 76 74 72 69 61 62 79 92 93 93 88 77 64 55 53 54 54 55 55 56 58 60 76 101 93 76 60 26 29 25 22 36 33 28 31 39 47 49 49 50 50 53 53 53 64 75 82 82 68 60 45 37 51 38 344 95 78 39 35 26 21 21 18 28 36 31 56 55 31 30 45 21 358 1 10 20 34 42 52 55 54 58 59 59 55
76 75 75 73 72 71 68 61 62 77 94 96 93 87 69 48 42 43 46 49 53 54 55 58 62 72 78 76 73 62 35 40 24 22 37 34 30 33 44 53 55 54 53 52 53 53 53 60 84 87 74 68 61 50 48 45 52 20 176 110 18 29 28 18 12 6 7 11 5 52 58 27 28 38 11 355 5 16 24 34 40 50 56 57 59 61 62 60
73 73 72 69 69 71 72 66 67 77 85 86 80 64 31 14 26 37 41 43 50 56 55 54 54 63 67 66 64 55 49 50 33 25 28 34 33 33 47 57 58 58 58 57 56 56 59 60 70 82 72 89 68 39 47 35 78 49 50 161 352 20 29 14 4 359 5 5 353 18 53 21 25 21 6 3 11 22 31 38 38 45 54 57 60 60 63 62
69 70 67 64 66 73 79 74 73 78 77 76 66 50 42 47 60 56 55 53 51 55 58 56 53 58 67 65 56 54 58 54 52 38 29 37 35 37 49 58 58 60 61 61 60 58 64 68 74 79 72 77 69 68 61 29 63 48 38 66 350 14 17 5 3 1 16 8 357 111 84 15 29 14 9 11 16 25 32 36 36 41 48 52 56 58 61 62
66 67 64 59 62 73 86 84 80 79 76 76 64 54 59 75 87 80 71 63 57 56 56 59 56 58 67 71 58 54 58 59 65 59 49 50 46 45 47 53 56 58 62 63 63 61 64 74 78 74 63 63 71 79 60 26 40 19 8 34 16 36 343 350 8 9 17 3 7 89 106 22 34 14 12 16 21 28 31 34 36 38 41 45 50 54 58 60
66 68 63 57 59 71 86 87 79 71 69 68 57 53 60 77 95 82 65 62 60 58 59 63 64 64 67 67 53 46 52 62 59 50 45 44 43 42 38 46 52 56 63 64 67 65 63 67 66 57 47 51 60 58 33 18 31 18 21 19 3 39 330 334 15 19 14 353 14 63 119 32 40 18 14 17 24 30 32 33 34 36 38 39 40 47 53 55
68 69 67 60 60 70 80 81 78 75 73 69 62 58 62 82 94 83 75 74 68 59 58 64 64 64 63 49 35 36 40 43 40 39 37 34 32 22 8 27 46 52 64 69 71 71 66 65 61 50 40 38 40 54 53 32 15 14 51 60 351 8 356 333 11 20 21 12 22 46 92 46 24 18 15 19 25 29 34 33 32 34 36 37 35 38 46 49
71 72 72 67 66 76 86 89 87 81 77 73 68 64 63 72 86 80 68 67 66 54 51 59 64 64 55 37 28 25 28 30 26 31 34 33 33 26 15 7 51 57 65 72 66 63 61 61 64 54 43 34 10 46 73 39 10 359 28 77 353 336 10 353 336 11 23 40 41 47 68 50 17 16 18 18 21 28 34 30 28 30 33 36 35 34 38 43
72 75 78 76 79 91 100 99 90 79 72 70 69 68 67 64 63 58 51 50 54 44 44 45 49 73 43 22 15 7 19 30 25 23 20 30 37 32 33 43 66 69 58 58 43 37 49 57 80 92 49 37 14 35 72 67 91 303 9 61 345 345 35 13 335 353 22 46 54 51 59 46 25 23 21 16 17 28 35 33 30 27 28 30 30 31 33 39
72 78 85 87 95 107 116 109 86 67 52 48 62 77 74 67 64 62 63 64 60 57 40 32 39 96 23 8 13 9 27 34 29 28 22 19 36 30 39 54 64 65 52 45 28 26 37 59 64 57 14 8 2 23 72 166 177 194 191 117 321 348 358 327 316 315 17 50 47 53 59 45 30 27 22 15 16 25 31 35 35 27 26 28 28 30 33 38
75 79 88 96 113 124 131 124 72 32 23 19 24 97 87 63 59 53 56 61 64 69 67 48 50 70 49 13 21 27 36 37 32 33 28 19 23 25 38 49 55 55 43 14 15 22 39 62 45 22 332 321 323 333 286 211 163 157 135 80 285 270 2 321 312 324 282 85 45 52 68 51 40 33 24 19 18 23 21 24 32 28 25 26 27 31 35 39
81 81 85 94 120 141 165 222 293 320 8 22 40 98 94 73 81 66 63 65 67 67 60 55 52 48 39 21 24 29 38 42 36 35 31 28 38 34 34 37 43 41 14 353 46 23 47 61 30 333 301 291 300 305 263 121 84 88 109 70 11 24 30 325 297 332 356 91 38 32 66 48 43 47 34 28 25 22 16 14 21 26 26 26 27 32 36 41
84 85 85 85 96 95 359 296 305 305 4 37 60 85 90 86 90 86 84 84 69 60 51 45 44 40 37 29 23 25 33 35 28 30 29 30 43 48 34 34 39 30 2 1 34 19 46 50 353 320 317 306 325 341 59 83 69 62 46 60 32 10 19 286 275 330 11 79 62 36 66 47 29 56 52 43 37 23 15 15 19 22 26 28 27 27 33 41
81 83 85 78 74 61 36 19 7 14 131 84 59 78 88 83 81 77 83 99 74 52 39 35 34 29 29 26 13 20 35 35 13 13 18 23 37 43 39 36 42 37 8 12 43 43 50 19 336 328 347 25 31 18 45 57 49 58 50 71 270 311 331 249 270 358 18 76 173 285 72 56 5 38 65 64 57 31 14 18 28 30 29 31 33 28 28 38
70 70 76 70 66 63 52 46 51 86 149 156 69 76 86 67 58 58 65 95 87 41 29 27 24 22 20 15 6 16 41 40 16 5 10 18 28 39 40 34 46 47 5 13 54 69 85 329 334 344 16 57 73 31 40 48 21 352 60 108 241 290 303 292 328 20 10 22 329 275 247 319 346 357 28 57 68 49 17 12 22 33 41 41 39 38 38 41
57 60 65 63 62 61 63 66 73 98 147 174 107 67 66 35 34 31 40 85 65 6 15 17 15 16 13 7 5 9 55 42 24 5 5 20 25 44 50 28 41 28 347 9 54 70 68 346 359 6 8 28 61 46 37 60 26 317 298 195 236 247 277 318 22 11 348 354 352 13 256 277 304 335 349 360 28 73 38 12 6 23 44 47 33 36 47 49
47 54 55 55 60 56 60 67 69 105 155 167 211 240 299 324 6 13 24 75 17 341 0 6 5 8 7 6 3 360 81 29 15 7 13 25 21 45 68 20 50 34 333 62 69 83 356 357 26 40 7 21 38 40 30 121 94 356 302 256 232 197 230 360 62 22 310 260 322 33 123 256 296 318 307 329 318 113 71 30 351 18 38 48 39 39 48 51
42 44 45 45 51 49 54 61 57 95 160 173 231 237 258 293 344 5 19 54 9 336 352 355 359 3 4 10 13 39 131 335 349 12 20 28 22 47 78 359 55 42 295 146 60 3 334 355 12 26 23 31 30 352 285 129 106 323 313 341 142 139 140 141 108 94 251 268 318 13 75 228 295 273 247 295 319 295 45 324 326 16 30 43 48 52 54 53
47 41 38 38 42 47 55 53 44 63 112 164 196 220 238 258 205 41 68 79 339 329 352 352 357 1 2 19 27 49 41 344 359 9 12 27 24 39 66 35 97 22 356 103 99 294 303 353 354 14 19 20 348 292 282 150 123 269 287 30 109 127 121 118 97 97 360 27 336 333 21 53 282 275 248 26 332 298 275 264 298 350 11 29 43 56 59 58
55 45 37 36 38 40 49 45 36 45 72 131 150 174 178 144 153 71 75 113 313 338 349 348 348 350 357 25 29 31 29 18 21 356 10 33 27 37 76 40 36 32 16 56 125 221 256 281 285 82 52 349 278 282 278 170 246 274 256 57 62 56 52 61 67 83 32 52 306 303 7 82 283 285 291 324 268 266 258 244 252 278 315 353 21 46 59 61
58 50 42 39 38 33 35 37 36 53 90 120 132 134 136 124 106 69 56 208 307 344 317 349 346 343 359 22 20 12 18 20 8 2 21 38 38 51 81 41 20 50 23 24 77 228 300 280 242 150 124 293 276 284 296 228 273 277 66 37 22 15 30 42 34 66 49 8 262 271 335 92 323 282 241 232 228 213 232 255 240 232 241 264 321 20 50 58
61 57 49 41 42 34 31 33 34 55 97 126 137 126 123 97 70 91 105 246 291 337 340 5 352 358 19 51 9 354 359 7 6 13 21 23 32 36 39 21 4 26 25 2 360 325 339 356 287 251 278 326 310 282 324 326 9 63 78 48 16 324 3 19 352 34 62 298 256 263 304 133 189 265 231 222 231 201 202 232 233 229 234 241 269 310 7 41
61 58 50 43 43 35 34 33 29 46 103 136 150 139 112 35 27 95 258 314 338 328 355 352 335 10 30 52 16 344 341 350 3 21 17 4 34 32 32 36 355 19 18 343 335 345 335 229 316 295 246 358 6 68 337 338 29 43 48 57 42 333 4 8 335 9 79 255 252 348 349 251 223 246 218 212 229 220 213 221 226 227 227 232 249 259 278 352
54 53 45 39 38 33 34 29 23 36 82 152 164 141 75 73 35 221 274 330 15 343 358 296 329 1 9 17 9 339 354 342 349 6 3 21 50 39 41 44 27 53 8 336 344 357 338 278 344 15 283 2 22 64 354 326 6 22 74 87 67 52 32 330 296 327 288 274 289 348 7 313 281 262 211 204 218 219 221 225 226 229 228 230 237 241 252 268
43 47 42 36 34 28 28 24 20 31 60 145 145 83 58 62 230 198 278 273 273 349 9 336 330 358 33 38 345 322 29 23 352 12 4 24 44 14 8 18 24 58 93 37 38 20 12 297 341 31 333 356 23 52 28 233 354 354 158 125 116 145 118 270 245 241 283 289 301 326 360 211 253 272 228 221 218 212 214 218 220 227 230 231 242 244 247 254
35 41 39 31 29 20 20 20 12 21 101 148 99 66 73 196 235 164 251 253 266 337 338 10 23 33 14 350 325 351 65 331 352 35 21 30 60 8 356 344 5 42 94 35 360 137 59 267 284 348 309 1 23 334 64 109 2 322 151 80 47 171 147 161 188 188 212 304 305 295 242 223 226 265 265 244 219 203 203 209 212 223 228 229 243 249 249 253
31 36 33 21 16 11 13 10 5 21 128 151 72 58 147 204 208 160 175 208 110 120 301 344 32 49 353 318 332 1 64 313 357 36 22 46 123 231 12 280 336 29 75 78 17 341 360 276 285 350 306 121 17 312 258 104 292 354 51 35 242 168 125 112 191 211 111 37 291 277 271 288 311 301 285 135 208 219 209 208 211 219 225 229 241 249 249 250
19 21 21 11 4 3 4 1 5 20 127 132 79 99 204 200 190 177 129 114 139 117 83 2 2 39 324 298 318 319 324 302 18 41 13 24 119 195 159 299 336 34 77 134 127 350 341 281 295 24 183 293 345 291 223 79 109 43 21 216 192 72 78 96 345 346 42 16 288 311 280 292 330 317 308 176 227 243 229 217 218 221 223 227 236 241 243 246
18 11 14 9 1 356 358 2 6 11 64 82 76 149 199 173 189 187 141 124 135 90 82 126 254 68 193 239 306 305 331 339 18 49 30 325 70 177 167 109 72 42 66 146 129 26 102 298 302 64 194 312 346 354 240 351 53 82 123 160 113 67 14 24 48 3 16 332 298 307 297 271 216 223 260 221 222 230 227 220 222 225 223 225 231 234 235 239
10 5 13 9 1 357 358 3 1 356 54 76 103 190 180 192 189 166 152 137 122 88 98 166 192 64 169 190 283 305 344 356 10 43 69 26 102 183 171 166 167 47 78 138 137 215 147 16 293 288 267 307 346 50 204 319 12 63 94 45 34 116 147 3 42 78 268 299 302 318 328 286 228 213 203 212 221 220 215 212 220 226 225 226 231 234 234 235
1 4 11 4 2 1 354 356 10 27 61 91 165 182 79 216 179 151 157 152 115 107 156 185 160 117 201 217 259 297 360 6 7 18 248 254 102 198 186 181 186 97 115 135 125 152 101 112 252 293 338 324 318 18 160 190 325 7 23 1 354 52 113 73 19 69 126 144 231 326 316 277 243 201 190 212 223 213 207 208 219 226 228 230 234 236 238 237
21 19 3 359 2 1 355 8 32 50 80 90 115 114 3 135 143 142 156 154 116 106 137 150 142 146 184 204 255 225 59 356 299 288 265 245 225 231 198 178 173 146 129 123 113 157 137 137 223 297 332 308 245 254 191 186 187 175 225 219 154 45 84 75 332 326 83 129 171 158 292 277 259 196 198 216 221 218 216 213 221 229 232 234 238 240 241 240
37 32 358 1 3 360 6 35 46 57 92 90 63 60 20 93 121 139 153 149 125 90 99 121 124 129 155 165 186 165 140 314 215 207 261 234 226 234 188 169 169 150 126 118 197 183 149 113 166 270 273 256 265 326 82 187 167 151 211 209 127 115 109 112 268 273 107 95 154 120 266 273 263 206 217 239 244 246 238 226 230 238 240 240 242 241 240 241
42 35 2 5 6 3 18 44 37 34 65 103 99 102 105 98 109 147 170 180 160 83 72 98 123 120 164 180 135 141 187 236 194 189 238 242 262 246 177 166 168 147 126 45 243 175 138 84 75 278 288 313 341 7 61 45 93 149 252 145 139 155 120 139 180 194 171 195 154 97 267 269 275 247 241 260 266 266 261 246 242 245 245 243 241 239 238 241
35 27 15 15 7 2 30 86 86 55 38 69 82 89 99 109 120 135 180 260 181 100 75 85 131 130 120 98 104 134 194 261 220 249 211 204 276 239 169 165 165 158 169 298 175 175 199 92 78 356 337 339 348 354 346 345 360 215 242 208 171 112 94 114 143 88 285 220 159 145 247 257 272 315 293 284 287 279 267 257 254 251 247 243 241 242 242 244
20 9 20 24 12 16 73 117 130 127 129 49 76 95 88 86 131 172 200 209 170 132 62 35 143 124 100 74 66 46 21 28 290 321 360 285 267 211 177 185 192 168 209 265 162 168 209 242 125 92 12 299 302 303 296 307 296 244 225 212 213 148 135 162 111 100 246 232 158 176 237 260 274 305 315 303 308 294 277 268 263 258 253 249 247 248 249 250
45 43 10 17 16 40 76 88 92 115 147 151 104 125 121 90 158 205 178 172 192 174 127 123 143 119 88 85 65 11 338 350 349 343 325 271 266 232 187 194 202 201 186 175 178 150 97 294 239 195 203 229 254 259 264 5 301 273 261 227 208 189 165 136 104 172 205 179 196 228 241 274 282 277 278 282 282 281 275 274 272 266 261 259 256 257 257 257
66 81 347 3 17 46 70 69 65 98 140 150 128 160 168 142 353 215 191 206 208 189 180 163 167 168 187 176 140 340 273 334 344 285 249 242 257 293 219 205 213 213 189 177 193 129 86 304 253 219 234 254 270 279 294 309 267 265 270 255 217 194 173 165 198 210 152 122 250 243 213 250 274 277 269 269 272 273 274 277 280 280 277 274 270 267 264 263
64 131 150 110 30 47 66 50 67 101 109 109 126 144 144 170 230 186 195 200 183 189 195 296 232 208 192 173 154 124 176 325 312 249 245 253 262 320 281 210 209 204 190 188 203 131 120 257 244 204 258 268 272 278 280 273 261 258 262 261 246 215 194 202 221 211 161 205 248 251 210 247 271 283 283 277 278 280 281 284 286 286 284 280 277 273 268 266
103 117 123 129 146 157 130 97 110 114 102 86 97 134 148 187 213 219 181 135 360 222 191 228 257 219 191 173 152 154 195 210 290 260 236 222 234 273 324 221 200 189 183 176 192 143 144 243 235 176 286 278 266 270 271 268 272 270 261 255 245 231 219 219 227 217 207 235 252 262 273 275 274 275 279 284 287 285 283 286 287 284 283 281 278 276 274 273
148 145 151 142 125 123 127 128 130 122 96 79 130 199 179 184 206 217 182 170 187 199 179 213 252 202 190 188 169 205 214 185 176 249 197 182 250 228 203 215 167 159 177 170 171 158 156 254 233 92 306 290 289 305 299 273 270 274 273 264 246 234 232 229 230 224 222 243 254 259 269 274 270 271 277 282 283 282 278 278 281 284 288 287 281 279 279 280
206 209 186 153 123 129 138 140 137 121 86 163 193 194 187 203 207 199 198 204 204 186 182 202 200 148 174 195 202 238 242 223 221 239 203 207 241 221 209 204 158 147 176 187 176 147 154 258 13 60 329 287 311 340 315 299 288 276 274 270 251 225 223 224 217 206 209 226 241 252 255 254 264 276 285 279 276 272 267 271 279 286 291 291 285 284 284 284
220 210 199 175 138 167 170 155 127 117 199 212 194 184 193 216 198 178 196 238 218 213 213 202 179 135 131 203 220 245 258 253 253 260 251 249 251 244 246 232 191 175 174 168 173 165 147 148 55 66 298 277 291 320 315 318 310 282 265 264 240 204 208 223 214 197 205 213 210 217 233 243 264 286 291 282 281 273 269 277 285 288 290 291 287 285 286 287
Height
1562 1562 1561 1561 1560 1560 1560 1559 1559 1559 1559 1559 1559 1558 1558 1557 1557 1556 1555 1555 1554 1552 1550 1549 1548 1547 1547 1547 1546 1546 1544 1543 1540 1534 1536 1547 1553 1551 1548 1545 1542 1540 1538 1537 1535 1533 1532 1530 1530 1529 1529 1529 1530 1531 1531 1533 1532 1533 1541 1547 1554 1561 1561 1561 1562 1561 1562 1560 1557 1555 1554 1554 1550 1546 1544 1543 1542 1541 1538 1538 1539 1539 1539 1540 1540 1537 1533 1531
1564 1563 1563 1562 1561 1561 1561 1561 1561 1561 1561 1560 1560 1559 1559 1558 1558 1557 1556 1555 1554 1553 1550 1548 1547 1546 1546 1546 1547 1546 1545 1545 1539 1536 1545 1554 1553 1551 1549 1546 1543 1540 1539 1537 1535 1534 1532 1531 1531 1530 1530 1530 1533 1533 1533 1536 1536 1539 1548 1554 1560 1564 1562 1561 1562 1561 1561 1560 1557 1556 1554 1554 1553 1550 1547 1545 1544 1542 1540 1538 1537 1537 1537 1537 1537 1535 1532 1531
1565 1564 1563 1563 1563 1562 1562 1562 1562 1562 1562 1562 1561 1561 1560 1560 1559 1558 1557 1556 1555 1554 1552 1549 1547 1546 1545 1546 1547 1545 1546 1544 1539 1544 1554 1555 1553 1552 1550 1547 1544 1541 1539 1537 1536 1535 1534 1533 1533 1532 1531 1532 1536 1535 1535 1539 1541 1545 1550 1558 1563 1563 1562 1561 1561 1560 1560 1559 1557 1556 1554 1554 1553 1551 1550 1548 1546 1544 1546 1545 1542 1540 1538 1537 1537 1535 1533 1531
1565 1565 1564 1564 1564 1563 1563 1564 1563 1564 1563 1563 1563 1562 1562 1561 1560 1559 1558 1557 1556 1555 1553 1551 1548 1546 1545 1546 1546 1546 1546 1543 1547 1557 1559 1556 1555 1554 1551 1549 1546 1543 1541 1540 1538 1537 1536 1535 1535 1533 1532 1536 1539 1537 1540 1544 1545 1549 1554 1562 1565 1562 1562 1561 1560 1559 1558 1558 1557 1555 1554 1553 1553 1553 1553 1551 1549 1549 1549 1549 1548 1546 1543 1540 1538 1536 1534 1532
1567 1566 1565 1565 1565 1565 1565 1565 1565 1565 1565 1565 1564 1564 1563 1563 1562 1560 1559 1558 1557 1557 1555 1553 1551 1548 1547 1545 1545 1546 1544 1550 1560 1564 1560 1558 1557 1555 1553 1551 1548 1546 1544 1541 1540 1538 1537 1537 1535 1534 1535 1541 1542 1542 1548 1550 1548 1554 1561 1564 1564 1563 1562 1561 1560 1558 1557 1557 1556 1555 1555 1554 1554 1555 1556 1554 1557 1559 1555 1550 1549 1548 1545 1542 1539 1538 1535 1532
1568 1567 1567 1566 1566 1566 1566 1566 1567 1566 1567 1566 1566 1566 1565 1564 1563 1561 1560 1559 1557 1557 1556 1555 1554 1552 1550 1548 1548 1545 1546 1560 1569 1564 1562 1561 1559 1557 1555 1552 1550 1548 1546 1543 1541 1540 1538 1537 1536 1537 1541 1546 1548 1549 1553 1553 1550 1556 1564 1564 1563 1563 1563 1562 1560 1558 1558 1556 1556 1556 1556 1555 1554 1556 1557 1556 1560 1562 1556 1551 1549 1547 1544 1542 1540 1538 1536 1533
1569 1569 1568 1568 1568 1568 1568 1568 1568 1568 1568 1568 1568 1567 1566 1566 1565 1564 1563 1560 1559 1557 1556 1556 1555 1554 1554 1553 1551 1547 1551 1564 1569 1565 1565 1563 1561 1560 1557 1555 1553 1549 1547 1543 1541 1541 1540 1539 1538 1541 1546 1549 1552 1554 1555 1555 1553 1556 1563 1564 1563 1563 1562 1562 1560 1559 1558 1557 1558 1557 1555 1555 1555 1557 1557 1557 1560 1558 1554 1552 1549 1547 1544 1542 1540 1538 1537 1536
1571 1570 1570 1570 1570 1570 1569 1569 1569 1569 1569 1569 1569 1568 1568 1568 1567 1566 1564 1563 1561 1559 1557 1556 1555 1555 1554 1555 1552 1550 1557 1566 1569 1567 1567 1565 1563 1561 1559 1557 1553 1550 1547 1544 1544 1543 1542 1541 1543 1545 1549 1552 1555 1556 1556 1556 1556 1559 1563 1563 1563 1562 1562 1561 1559 1559 1558 1559 1559 1556 1556 1558 1558 1557 1557 1560 1561 1557 1555 1553 1549 1547 1543 1541 1539 1539 1538 1537
1572 1572 1572 1571 1571 1571 1571 1571 1571 1570 1571 1571 1571 1570 1570 1569 1569 1568 1566 1566 1564 1562 1560 1557 1556 1555 1554 1556 1551 1553 1566 1571 1570 1569 1568 1567 1565 1563 1561 1558 1555 1553 1549 1548 1547 1545 1544 1545 1547 1548 1550 1555 1556 1557 1557 1556 1559 1563 1563 1563 1563 1562 1561 1560 1559 1559 1559 1560 1559 1557 1559 1562 1559 1557 1559 1563 1562 1559 1557 1554 1550 1546 1543 1542 1541 1540 1539 1538
1574 1574 1573 1573 1573 1573 1572 1572 1572 1572 1572 1572 1572 1572 1571 1571 1571 1570 1569 1568 1566 1565 1563 1560 1559 1556 1556 1555 1549 1560 1574 1573 1571 1571 1570 1569 1567 1565 1563 1559 1558 1555 1552 1551 1549 1547 1547 1549 1551 1551 1552 1555 1557 1558 1558 1558 1563 1565 1563 1563 1563 1562 1561 1560 1559 1559 1560 1560 1560 1560 1562 1563 1561 1560 1565 1567 1564 1561 1558 1555 1552 1547 1545 1545 1543 1542 1541 1539
1576 1575 1575 1575 1574 1574 1574 1574 1573 1573 1573 1573 1573 1573 1573 1572 1572 1571 1571 1569 1568 1567 1565 1565 1563 1560 1558 1551 1551 1568 1577 1573 1573 1572 1571 1570 1568 1566 1564 1562 1560 1557 1555 1553 1551 1551 1551 1552 1553 1552 1553 1556 1558 1560 1560 1562 1564 1564 1563 1563 1563 1562 1561 1561 1560 1560 1561 1559 1560 1560 1560 1562 1562 1564 1572 1571 1567 1564 1560 1557 1554 1550 1549 1548 1546 1544 1543 1542
1578 1577 1577 1577 1576 1576 1576 1575 1575 1575 1575 1575 1575 1574 1574 1573 1573 1572 1572 1571 1570 1569 1568 1567 1564 1563 1558 1551 1560 1575 1576 1574 1575 1573 1572 1571 1569 1568 1566 1565 1563 1561 1559 1556 1555 1555 1554 1555 1554 1553 1556 1558 1560 1562 1563 1564 1564 1563 1563 1563 1564 1563 1563 1566 1565 1564 1562 1561 1560 1558 1562 1567 1569 1572 1576 1573 1569 1566 1562 1558 1556 1554 1552 1550 1549 1547 1545 1544
1581 1580 1579 1579 1578 1578 1577 1577 1577 1576 1576 1576 1576 1575 1574 1574 1573 1573 1573 1572 1571 1570 1570 1568 1567 1565 1557 1558 1572 1578 1576 1576 1576 1574 1574 1571 1570 1569 1568 1567 1565 1564 1562 1560 1559 1558 1558 1558 1557 1556 1557 1559 1562 1563 1564 1565 1564 1565 1565 1567 1568 1568 1569 1571 1569 1566 1563 1563 1560 1558 1570 1579 1577 1578 1577 1573 1571 1567 1563 1560 1558 1557 1555 1553 1551 1549 1547 1546
1583 1582 1582 1581 1580 1579 1579 1579 1578 1578 1578 1577 1577 1576 1575 1575 1574 1574 1574 1573 1572 1571 1571 1569 1569 1568 1562 1568 1578 1578 1577 1578 1576 1575 1574 1573 1573 1571 1570 1569 1567 1566 1565 1563 1562 1561 1561 1560 1559 1558 1559 1561 1563 1565 1566 1566 1567 1568 1568 1572 1578 1578 1578 1576 1573 1569 1565 1566 1561 1559 1576 1584 1579 1579 1577 1574 1572 1568 1566 1564 1561 1559 1557 1556 1554 1552 1550 1548
1584 1584 1584 1583 1582 1581 1581 1580 1580 1580 1579 1578 1578 1577 1577 1576 1576 1576 1575 1574 1574 1573 1573 1571 1571 1570 1568 1573 1579 1579 1579 1578 1576 1576 1575 1575 1574 1572 1572 1571 1569 1569 1567 1566 1564 1564 1563 1561 1559 1559 1562 1564 1564 1567 1569 1569 1572 1574 1573 1579 1585 1584 1582 1579 1575 1574 1571 1571 1564 1562 1577 1584 1579 1580 1578 1575 1573 1570 1568 1566 1564 1562 1560 1558 1556 1554 1552 1551
1585 1586 1585 1585 1585 1584 1583 1582 1582 1581 1580 1580 1579 1579 1579 1578 1577 1577 1576 1576 1575 1575 1574 1573 1572 1571 1571 1577 1580 1580 1579 1578 1578 1578 1577 1577 1575 1574 1573 1572 1571 1570 1569 1568 1567 1566 1564 1561 1561 1564 1566 1567 1569 1571 1571 1574 1578 1580 1581 1585 1588 1585 1584 1581 1577 1578 1576 1573 1569 1568 1579 1584 1581 1580 1579 1576 1574 1572 1570 1568 1566 1564 1562 1560 1558 1556 1554 1553
1586 1586 1587 1587 1586 1586 1585 1585 1584 1583 1582 1581 1581 1581 1581 1580 1579 1578 1577 1577 1576 1577 1575 1575 1574 1571 1574 1581 1583 1581 1581 1581 1580 1580 1579 1578 1577 1575 1573 1572 1572 1571 1571 1569 1568 1567 1565 1564 1567 1571 1573 1574 1576 1573 1570 1580 1587 1587 1588 1588 1589 1587 1586 1585 1581 1580 1578 1576 1577 1576 1580 1586 1584 1581 1580 1577 1575 1573 1571 1569 1568 1566 1565 1563 1561 1559 1557 1555
1588 1588 1588 1588 1588 1588 1587 1587 1586 1585 1585 1584 1583 1583 1583 1582 1581 1579 1578 1578 1577 1576 1575 1576 1574 1574 1581 1586 1587 1586 1586 1584 1583 1581 1580 1579 1578 1576 1575 1573 1572 1572 1571 1569 1569 1568 1566 1568 1570 1572 1576 1578 1581 1578 1574 1584 1593 1592 1591 1590 1589 1588 1587 1587 1585 1583 1581 1579 1581 1581 1583 1586 1585 1582 1581 1578 1576 1574 1572 1571 1570 1568 1567 1565 1563 1561 1560 1558
1589 1589 1589 1589 1590 1589 1589 1588 1587 1587 1587 1586 1586 1585 1584 1584 1582 1581 1579 1578 1579 1580 1584 1586 1583 1587 1594 1593 1591 1590 1588 1586 1584 1582 1581 1580 1579 1579 1577 1575 1574 1572 1571 1572 1572 1572 1570 1571 1573 1575 1582 1585 1587 1589 1586 1588 1591 1591 1592 1591 1590 1590 1588 1587 1585 1583 1582 1582 1583 1584 1585 1586 1584 1583 1582 1580 1578 1575 1574 1573 1571 1570 1568 1567 1565 1564 1563 1561
1590 1590 1591 1591 1591 1591 1590 1589 1588 1588 1587 1587 1586 1585 1585 1585 1584 1585 1582 1581 1586 1591 1595 1596 1593 1596 1597 1595 1592 1590 1588 1587 1585 1583 1582 1581 1580 1580 1578 1576 1575 1573 1575 1577 1577 1577 1573 1576 1586 1591 1594 1594 1592 1594 1592 1591 1591 1590 1591 1591 1590 1590 1589 1587 1586 1584 1582 1583 1586 1586 1586 1586 1584 1584 1583 1582 1579 1576 1575 1573 1572 1572 1570 1569 1568 1566 1565 1563
1591 1591 1591 1592 1592 1592 1592 1591 1590 1589 1589 1588 1587 1585 1586 1585 1585 1588 1587 1589 1595 1597 1596 1597 1596 1596 1595 1594 1593 1590 1589 1587 1586 1585 1583 1582 1581 1580 1580 1579 1577 1577 1580 1580 1580 1580 1575 1581 1596 1598 1596 1596 1594 1594 1592 1591 1590 1589 1590 1590 1589 1589 1589 1587 1586 1584 1582 1585 1588 1586 1585 1586 1584 1584 1584 1583 1580 1578 1577 1576 1575 1573 1572 1571 1570 1568 1567 1566
1591 1591 1592 1592 1592 1592 1592 1592 1591 1590 1590 1590 1589 1587 1587 1587 1588 1590 1590 1593 1597 1597 1597 1597 1596 1595 1595 1594 1593 1592 1589 1586 1585 1585 1585 1584 1582 1582 1584 1583 1582 1585 1585 1582 1582 1581 1579 1590 1598 1596 1595 1595 1594 1594 1592 1590 1590 1590 1589 1589 1590 1589 1589 1587 1585 1585 1584 1585 1588 1586 1586 1586 1585 1584 1584 1583 1582 1581 1580 1579 1577 1575 1574 1573 1571 1570 1569 1567
1592 1592 1592 1592 1592 1592 1592 1592 1591 1591 1591 1591 1591 1590 1589 1590 1590 1591 1591 1593 1596 1597 1597 1597 1596 1595 1595 1594 1594 1592 1589 1588 1589 1587 1586 1585 1584 1585 1586 1587 1589 1590 1590 1588 1586 1585 1588 1596 1598 1596 1596 1593 1593 1594 1592 1590 1590 1592 1591 1590 1592 1590 1589 1588 1586 1586 1585 1586 1587 1586 1586 1586 1585 1584 1584 1584 1583 1583 1582 1580 1579 1577 1576 1574 1573 1572 1570 1568
1593 1593 1592 1592 1592 1592 1592 1591 1591 1592 1591 1591 1592 1591 1591 1591 1592 1592 1592 1593 1596 1598 1598 1598 1597 1596 1595 1595 1594 1592 1592 1593 1593 1591 1589 1588 1587 1587 1588 1591 1592 1593 1595 1595 1592 1592 1597 1600 1598 1597 1596 1594 1593 1592 1593 1592 1590 1593 1594 1593 1592 1589 1590 1590 1588 1587 1586 1586 1587 1587 1587 1586 1585 1584 1584 1584 1584 1583 1583 1581 1579 1578 1576 1576 1574 1573 1571 1569
1595 1594 1594 1593 1592 1592 1592 1591 1592 1592 1592 1592 1592 1592 1592 1592 1592 1593 1592 1594 1596 1598 1599 1599 1598 1598 1598 1597 1595 1595 1594 1594 1596 1595 1592 1590 1589 1589 1591 1592 1591 1593 1596 1596 1594 1595 1599 1600 1598 1597 1597 1595 1593 1592 1595 1595 1592 1592 1593 1593 1593 1591 1591 1590 1588 1589 1588 1588 1587 1587 1588 1586 1585 1585 1584 1583 1583 1583 1583 1581 1581 1579 1577 1576 1575 1573 1572 1571
1596 1595 1595 1594 1593 1593 1592 1592 1592 1592 1593 1592 1592 1593 1593 1593 1593 1593 1594 1596 1598 1601 1601 1600 1601 1601 1600 1599 1597 1595 1595 1596 1599 1598 1595 1593 1592 1591 1592 1593 1594 1595 1596 1597 1597 1597 1599 1599 1599 1599 1598 1596 1594 1593 1597 1597 1593 1590 1591 1593 1593 1593 1593 1590 1589 1590 1590 1589 1589 1589 1588 1586 1584 1583 1583 1583 1582 1582 1583 1582 1582 1580 1577 1576 1575 1574 1573 1572
1597 1597 1596 1595 1594 1593 1593 1593 1593 1593 1593 1593 1593 1593 1593 1594 1594 1594 1594 1596 1601 1606 1606 1604 1605 1605 1604 1604 1600 1598 1600 1600 1600 1599 1597 1595 1594 1593 1593 1595 1596 1596 1597 1597 1594 1598 1600 1598 1598 1600 1598 1596 1596 1595 1597 1599 1594 1589 1591 1593 1592 1592 1590 1588 1589 1590 1592 1591 1589 1589 1590 1588 1586 1582 1580 1581 1581 1580 1581 1582 1581 1579 1578 1577 1576 1575 1574 1573
1597 1597 1597 1596 1595 1594 1594 1594 1594 1594 1593 1593 1593 1593 1594 1594 1594 1595 1594 1598 1607 1611 1610 1608 1608 1607 1607 1606 1604 1603 1606 1605 1601 1600 1599 1597 1597 1595 1595 1598 1598 1597 1598 1594 1593 1600 1601 1598 1599 1599 1599 1598 1598 1597 1598 1599 1595 1591 1593 1593 1592 1592 1590 1590 1590 1591 1596 1594 1586 1588 1590 1587 1584 1581 1579 1579 1580 1580 1579 1580 1579 1578 1578 1577 1576 1575 1574 1574
1598 1598 1597 1597 1596 1595 1595 1594 1594 1594 1593 1594 1594 1593 1595 1594 1594 1596 1595 1602 1612 1613 1611 1610 1609 1609 1608 1607 1607 1607 1608 1607 1605 1604 1602 1600 1599 1598 1598 1600 1600 1599 1598 1595 1596 1601 1599 1599 1600 1599 1601 1600 1598 1597 1597 1598 1597 1594 1593 1593 1592 1593 1593 1593 1592 1592 1596 1591 1586 1589 1591 1588 1582 1578 1579 1580 1579 1578 1578 1578 1578 1577 1577 1576 1576 1575 1574 1574
1598 1598 1597 1597 1597 1596 1596 1595 1595 1595 1595 1594 1594 1594 1595 1595 1596 1596 1596 1604 1613 1613 1612 1611 1611 1612 1610 1608 1608 1609 1609 1609 1609 1607 1604 1603 1602 1600 1600 1600 1600 1602 1602 1600 1599 1601 1600 1599 1600 1600 1600 1599 1598 1596 1595 1596 1595 1594 1594 1592 1590 1591 1592 1594 1598 1599 1592 1583 1585 1591 1591 1590 1584 1577 1577 1578 1576 1575 1576 1577 1577 1576 1576 1575 1575 1575 1574 1574
1598 1598 1598 1597 1597 1597 1596 1596 1596 1595 1595 1595 1595 1595 1595 1596 1598 1596 1600 1610 1614 1612 1612 1613 1615 1615 1614 1614 1613 1612 1612 1611 1611 1609 1607 1607 1605 1602 1602 1603 1605 1601 1601 1603 1599 1600 1602 1599 1599 1600 1599 1599 1597 1594 1596 1595 1594 1594 1593 1590 1590 1592 1592 1591 1593 1594 1584 1577 1585 1592 1592 1592 1585 1575 1573 1574 1573 1573 1574 1574 1575 1575 1575 1575 1574 1574 1574 1573
1598 1598 1598 1598 1597 1597 1597 1596 1596 1596 1596 1596 1596 1596 1596 1597 1598 1602 1609 1613 1612 1613 1617 1617 1617 1617 1618 1619 1618 1617 1616 1613 1613 1613 1614 1613 1611 1612 1614 1618 1618 1604 1599 1608 1605 1599 1600 1600 1601 1600 1599 1601 1596 1594 1595 1593 1595 1594 1591 1592 1594 1594 1590 1582 1586 1595 1590 1583 1588 1594 1592 1588 1580 1570 1567 1570 1570 1571 1572 1572 1573 1573 1573 1573 1574 1573 1573 1573
1599 1599 1598 1598 1597 1597 1597 1597 1597 1596 1596 1597 1596 1598 1598 1595 1601 1615 1620 1615 1613 1619 1622 1621 1621 1621 1619 1617 1618 1621 1619 1616 1616 1615 1616 1616 1616 1621 1623 1625 1627 1616 1609 1617 1615 1604 1596 1596 1601 1599 1599 1601 1598 1598 1596 1593 1596 1597 1597 1598 1593 1594 1590 1581 1592 1603 1593 1584 1591 1598 1594 1581 1571 1565 1565 1567 1567 1568 1569 1570 1571 1572 1572 1572 1572 1572 1572 1572
1600 1599 1599 1599 1598 1598 1597 1597 1597 1596 1596 1597 1596 1597 1597 1597 1610 1623 1621 1619 1623 1624 1625 1625 1623 1622 1621 1619 1621 1623 1619 1618 1620 1617 1616 1617 1619 1624 1625 1625 1627 1625 1622 1620 1621 1618 1604 1595 1599 1600 1601 1602 1601 1604 1603 1601 1603 1602 1607 1605 1595 1598 1595 1586 1593 1595 1590 1594 1596 1594 1588 1574 1564 1563 1565 1565 1565 1566 1568 1569 1570 1570 1571 1571 1571 1572 1571 1570
1601 1600 1599 1599 1598 1598 1598 1597 1597 1596 1595 1596 1597 1597 1598 1604 1617 1622 1618 1622 1627 1625 1626 1627 1624 1620 1620 1623 1626 1625 1621 1618 1620 1620 1619 1621 1625 1628 1629 1628 1627 1629 1626 1619 1621 1628 1617 1604 1604 1604 1604 1605 1604 1605 1607 1605 1603 1605 1610 1605 1599 1604 1603 1603 1610 1611 1615 1614 1599 1589 1583 1574 1568 1565 1566 1567 1565 1567 1567 1567 1570 1569 1570 1571 1570 1571 1570 1569
1602 1601 1600 1600 1599 1598 1598 1597 1597 1596 1596 1596 1595 1598 1605 1613 1618 1620 1621 1623 1625 1625 1625 1623 1622 1618 1615 1620 1625 1625 1623 1621 1620 1620 1621 1626 1630 1630 1631 1630 1630 1630 1627 1624 1626 1628 1618 1606 1605 1605 1604 1606 1606 1606 1607 1604 1601 1604 1606 1602 1605 1610 1607 1609 1614 1626 1630 1606 1588 1591 1582 1572 1570 1562 1564 1570 1565 1567 1568 1565 1567 1567 1568 1570 1569 1569 1569 1569
1602 1602 1601 1600 1600 1599 1598 1597 1597 1596 1596 1596 1595 1603 1617 1621 1620 1622 1623 1622 1623 1627 1623 1617 1620 1622 1618 1618 1621 1622 1622 1620 1621 1620 1620 1625 1627 1627 1630 1630 1629 1630 1629 1629 1629 1630 1626 1611 1604 1607 1605 1604 1607 1605 1605 1607 1604 1604 1602 1603 1609 1610 1609 1610 1603 1608 1609 1585 1578 1592 1584 1574 1571 1558 1561 1572 1567 1566 1567 1565 1565 1566 1566 1567 1566 1567 1568 1568
1602 1602 1601 1601 1600 1600 1599 1597 1597 1597 1596 1597 1603 1613 1621 1621 1620 1622 1623 1622 1623 1625 1623 1618 1622 1629 1627 1621 1619 1625 1624 1616 1619 1622 1620 1623 1623 1624 1629 1628 1628 1629 1628 1628 1628 1631 1632 1615 1602 1608 1608 1604 1607 1605 1603 1606 1606 1604 1604 1607 1609 1603 1602 1609 1601 1591 1592 1587 1583 1586 1585 1581 1572 1559 1559 1564 1564 1564 1564 1565 1565 1564 1564 1564 1563 1565 1565 1566
1603 1603 1602 1602 1601 1600 1600 1598 1597 1597 1595 1598 1608 1615 1619 1621 1621 1621 1622 1623 1623 1623 1622 1622 1625 1630 1631 1627 1623 1628 1628 1620 1623 1625 1620 1620 1621 1623 1627 1626 1627 1628 1626 1628 1628 1629 1633 1620 1604 1606 1610 1606 1605 1604 1603 1605 1606 1606 1606 1607 1609 1607 1607 1610 1611 1604 1597 1595 1593 1584 1575 1565 1559 1560 1556 1552 1558 1561 1560 1564 1563 1561 1561 1561 1561 1562 1563 1563
1603 1603 1603 1603 1601 1600 1600 1598 1598 1598 1599 1605 1614 1617 1620 1622 1621 1621 1622 1622 1623 1622 1622 1625 1627 1625 1627 1630 1629 1630 1631 1629 1629 1627 1623 1624 1623 1622 1625 1625 1625 1627 1625 1627 1628 1627 1633 1628 1612 1606 1608 1605 1603 1606 1608 1608 1609 1607 1606 1607 1607 1612 1617 1613 1617 1623 1612 1601 1605 1602 1578 1553 1550 1558 1554 1550 1554 1556 1557 1560 1558 1558 1559 1558 1559 1560 1560 1561
1603 1604 1604 1603 1602 1601 1600 1599 1600 1605 1609 1616 1620 1621 1623 1622 1620 1622 1623 1622 1623 1623 1623 1625 1625 1624 1625 1627 1628 1630 1631 1631 1632 1630 1627 1627 1623 1621 1625 1625 1624 1626 1625 1625 1627 1626 1628 1629 1622 1614 1606 1600 1603 1611 1612 1611 1613 1610 1608 1610 1607 1610 1614 1605 1607 1626 1628 1614 1613 1613 1589 1558 1550 1554 1552 1551 1552 1552 1555 1556 1555 1556 1555 1556 1557 1557 1559 1560
1604 1605 1605 1604 1604 1602 1601 1603 1608 1612 1615 1618 1620 1622 1623 1622 1623 1623 1623 1623 1624 1623 1624 1625 1625 1627 1628 1626 1628 1632 1631 1629 1630 1629 1626 1626 1625 1623 1625 1626 1625 1626 1625 1625 1626 1626 1626 1629 1628 1619 1608 1604 1608 1613 1612 1611 1614 1614 1611 1612 1612 1612 1612 1604 1601 1613 1625 1625 1624 1626 1604 1564 1548 1553 1553 1551 1552 1551 1553 1553 1553 1554 1552 1554 1555 1555 1557 1557
1604 1605 1605 1605 1605 1603 1603 1606 1612 1616 1618 1620 1621 1622 1623 1623 1624 1624 1624 1624 1625 1624 1624 1625 1625 1626 1627 1628 1630 1632 1631 1626 1626 1626 1625 1627 1627 1625 1626 1626 1626 1626 1627 1627 1627 1626 1626 1627 1624 1614 1605 1607 1611 1613 1614 1614 1613 1612 1611 1612 1613 1611 1610 1611 1611 1611 1616 1620 1620 1622 1600 1558 1544 1555 1553 1551 1553 1551 1551 1552 1551 1551 1551 1552 1553 1553 1555 1555
1605 1605 1605 1605 1605 1604 1604 1606 1610 1616 1621 1622 1621 1622 1623 1623 1624 1624 1625 1625 1625 1626 1625 1625 1627 1625 1626 1629 1630 1632 1632 1625 1622 1626 1627 1627 1626 1625 1626 1627 1626 1627 1627 1627 1627 1626 1625 1624 1621 1611 1603 1601 1602 1604 1607 1610 1611 1610 1610 1611 1611 1612 1614 1615 1618 1617 1612 1610 1610 1605 1584 1553 1547 1556 1552 1551 1554 1550 1550 1552 1550 1550 1551 1550 1551 1552 1552 1552
1606 1605 1605 1605 1605 1604 1605 1608 1610 1615 1622 1623 1621 1623 1623 1623 1624 1624 1625 1625 1626 1627 1626 1626 1627 1626 1628 1631 1631 1634 1635 1628 1624 1627 1628 1628 1626 1625 1626 1626 1626 1627 1627 1627 1628 1627 1626 1626 1621 1613 1607 1603 1597 1596 1598 1603 1609 1608 1608 1610 1608 1611 1613 1610 1614 1616 1606 1607 1612 1598 1571 1550 1547 1552 1551 1551 1553 1551 1550 1551 1550 1550 1550 1549 1550 1550 1549 1550
1606 1606 1606 1606 1605 1605 1607 1610 1610 1613 1619 1619 1618 1622 1623 1623 1624 1624 1624 1625 1625 1626 1627 1627 1627 1628 1629 1631 1631 1633 1636 1636 1633 1631 1629 1628 1624 1624 1625 1625 1626 1627 1627 1627 1628 1629 1630 1630 1625 1616 1611 1605 1599 1598 1603 1607 1608 1605 1603 1606 1607 1609 1610 1609 1613 1611 1601 1607 1607 1586 1569 1559 1549 1548 1551 1550 1550 1551 1550 1549 1549 1549 1548 1548 1548 1547 1547 1548
1606 1607 1608 1607 1606 1606 1607 1610 1611 1611 1615 1615 1615 1620 1623 1623 1624 1624 1624 1625 1625 1626 1627 1626 1627 1627 1627 1629 1630 1631 1636 1639 1637 1632 1629 1627 1624 1624 1624 1624 1625 1625 1626 1627 1627 1629 1630 1627 1625 1623 1616 1610 1607 1607 1610 1611 1609 1604 1602 1602 1602 1605 1608 1609 1606 1599 1598 1602 1590 1571 1572 1570 1552 1545 1550 1549 1549 1550 1548 1547 1547 1547 1547 1547 1545 1545 1545 1544
1606 1608 1610 1610 1608 1609 1609 1610 1611 1612 1613 1615 1618 1621 1622 1623 1623 1622 1623 1625 1625 1625 1626 1625 1625 1625 1625 1627 1626 1628 1633 1635 1632 1629 1626 1625 1625 1624 1622 1623 1625 1623 1625 1627 1625 1628 1630 1624 1623 1626 1621 1616 1616 1613 1611 1612 1609 1605 1602 1600 1600 1602 1603 1601 1596 1594 1596 1591 1573 1564 1571 1568 1552 1546 1547 1546 1547 1549 1546 1545 1545 1544 1544 1543 1542 1543 1542 1541
1607 1607 1609 1610 1609 1610 1611 1611 1612 1612 1613 1615 1618 1620 1621 1621 1620 1620 1622 1624 1624 1625 1625 1622 1621 1622 1624 1626 1624 1625 1627 1623 1621 1624 1625 1624 1624 1623 1621 1621 1623 1623 1624 1625 1625 1626 1626 1623 1624 1628 1622 1616 1615 1613 1612 1613 1610 1605 1601 1597 1596 1596 1596 1593 1591 1591 1590 1584 1572 1569 1572 1565 1551 1545 1545 1543 1545 1547 1545 1542 1542 1541 1539 1539 1539 1539 1538 1538
1607 1607 1608 1608 1609 1610 1611 1612 1612 1613 1614 1615 1615 1617 1619 1618 1617 1618 1620 1619 1618 1622 1624 1620 1619 1620 1622 1624 1624 1622 1620 1617 1616 1619 1622 1622 1621 1621 1621 1617 1619 1624 1624 1624 1626 1626 1624 1622 1625 1627 1621 1612 1612 1614 1612 1611 1610 1605 1596 1588 1587 1589 1589 1588 1588 1588 1588 1584 1575 1573 1577 1568 1548 1541 1545 1544 1542 1543 1542 1540 1538 1537 1537 1537 1536 1536 1535 1535
1607 1607 1607 1608 1609 1611 1611 1612 1613 1613 1614 1615 1613 1614 1616 1615 1614 1615 1615 1614 1613 1616 1619 1617 1617 1619 1621 1623 1622 1618 1615 1616 1617 1617 1618 1619 1618 1618 1618 1616 1618 1622 1622 1623 1624 1624 1625 1624 1624 1627 1620 1609 1612 1615 1609 1607 1607 1599 1584 1572 1572 1578 1580 1578 1578 1578 1578 1576 1574 1576 1578 1563 1542 1539 1544 1542 1539 1541 1539 1537 1536 1535 1535 1535 1534 1533 1533 1532
1607 1607 1607 1607 1608 1611 1611 1611 1613 1612 1611 1610 1610 1611 1612 1611 1613 1613 1611 1612 1612 1612 1614 1614 1614 1618 1620 1621 1619 1614 1613 1615 1615 1616 1616 1616 1615 1615 1615 1616 1616 1617 1619 1622 1622 1622 1625 1623 1623 1627 1619 1607 1613 1616 1610 1607 1599 1579 1563 1557 1557 1563 1568 1568 1569 1569 1568 1568 1570 1569 1560 1546 1539 1541 1542 1539 1538 1538 1536 1535 1535 1533 1533 1533 1531 1530 1530 1529